N275CM KTEB-KBOS

Flight info

Callsign N275CM
Flight time N/A
Altitude 19000
Route BREZY V39 CMK MERIT ROBUC3
Aircraft SF50/L-BDGRSWY/LB2U2

Departure

Time 2026-05-04 23:22
Airport Teterboro Airport (KTEB)

Arrival

Time N/A
Airport Boston Logan International Airport (KBOS)
Time Latitude Longitude Altitude Speed Heading
2026-05-04 22:59 40.85526 -74.06366 6 ft 0 kts 38°
2026-05-04 23:17 40.85531 -74.06361 15 ft 4 kts 52°
2026-05-04 23:17 40.85531 -74.06307 7 ft 8 kts 94°
2026-05-04 23:17 40.85562 -74.06241 14 ft 10 kts 37°
2026-05-04 23:18 40.85596 -74.06179 8 ft 8 kts 108°
2026-05-04 23:18 40.85569 -74.06128 9 ft 6 kts 127°
2026-05-04 23:18 40.85563 -74.06078 11 ft 7 kts 55°
2026-05-04 23:18 40.85622 -74.06054 11 ft 12 kts
2026-05-04 23:19 40.85731 -74.06049 9 ft 15 kts
2026-05-04 23:19 40.85784 -74.05996 9 ft 8 kts 93°
2026-05-04 23:19 40.85781 -74.05920 10 ft 9 kts 93°
2026-05-04 23:19 40.85776 -74.05822 13 ft 13 kts 90°
2026-05-04 23:20 40.85791 -74.05694 14 ft 15 kts 80°
2026-05-04 23:20 40.85808 -74.05567 14 ft 11 kts 79°
2026-05-04 23:20 40.85815 -74.05514 14 ft 0 kts 81°
2026-05-04 23:21 40.85803 -74.05460 14 ft 10 kts 135°
2026-05-04 23:21 40.85760 -74.05431 14 ft 3 kts 226°
2026-05-04 23:21 40.85708 -74.05507 14 ft 41 kts 228°
2026-05-04 23:21 40.85363 -74.06018 99 ft 97 kts 228°
2026-05-04 23:22 40.84900 -74.06731 468 ft 104 kts 228°
2026-05-04 23:22 40.84434 -74.07488 891 ft 104 kts 229°
2026-05-04 23:22 40.83954 -74.08293 1310 ft 117 kts 231°
2026-05-04 23:22 40.83429 -74.09233 1576 ft 140 kts 241°
2026-05-04 23:23 40.83291 -74.10533 1839 ft 145 kts 268°
2026-05-04 23:23 40.83341 -74.11875 2011 ft 150 kts 268°
2026-05-04 23:23 40.83370 -74.13275 2030 ft 157 kts 267°
2026-05-04 23:23 40.83382 -74.14742 2009 ft 163 kts 266°
2026-05-04 23:24 40.83384 -74.16252 2081 ft 161 kts 266°
2026-05-04 23:24 40.83375 -74.17751 2357 ft 170 kts 266°
2026-05-04 23:24 40.83429 -74.19376 2636 ft 189 kts 281°
2026-05-04 23:24 40.84300 -74.20782 2914 ft 208 kts 326°
2026-05-04 23:25 40.85622 -74.21405 3589 ft 193 kts 338°
2026-05-04 23:25 40.86840 -74.21885 4516 ft 178 kts 337°
2026-05-04 23:25 40.88035 -74.22355 5083 ft 181 kts 338°
2026-05-04 23:25 40.89236 -74.22831 5741 ft 179 kts 337°
2026-05-04 23:26 40.90491 -74.23327 6000 ft 202 kts 337°
2026-05-04 23:26 40.91905 -74.23902 6010 ft 228 kts 337°
2026-05-04 23:26 40.93489 -74.24558 6010 ft 247 kts 337°
2026-05-04 23:26 40.95164 -74.25262 6008 ft 259 kts 337°
2026-05-04 23:27 40.96915 -74.26000 6009 ft 265 kts 338°
2026-05-04 23:27 40.98722 -74.26587 5993 ft 273 kts 353°
2026-05-04 23:27 41.00562 -74.25970 5991 ft 284 kts 25°
2026-05-04 23:27 41.02173 -74.24429 5996 ft 286 kts 37°
2026-05-04 23:28 41.03768 -74.22849 6002 ft 286 kts 31°
2026-05-04 23:28 41.04899 -74.21938 6000 ft 286 kts 26°
2026-05-04 23:28 41.06645 -74.20692 6003 ft 286 kts 26°
2026-05-04 23:28 41.08937 -74.18929 6000 ft 287 kts 28°
2026-05-04 23:29 41.10074 -74.18009 6005 ft 287 kts 28°
2026-05-04 23:29 41.12238 -74.16290 6681 ft 256 kts 26°
2026-05-04 23:29 41.13260 -74.15500 7088 ft 248 kts 26°
2026-05-04 23:29 41.14687 -74.14252 7694 ft 245 kts 37°
2026-05-04 23:30 41.15779 -74.12559 8307 ft 243 kts 53°
2026-05-04 23:30 41.16499 -74.10486 8801 ft 248 kts 71°
2026-05-04 23:30 41.16967 -74.08313 9346 ft 248 kts 71°
2026-05-04 23:30 41.17469 -74.06113 9812 ft 250 kts 70°
2026-05-04 23:31 41.17969 -74.03888 10232 ft 252 kts 71°
2026-05-04 23:31 41.18466 -74.01637 10648 ft 253 kts 71°
2026-05-04 23:31 41.18968 -73.99368 10971 ft 259 kts 71°
2026-05-04 23:31 41.19485 -73.97032 10997 ft 275 kts 71°
2026-05-04 23:32 41.20035 -73.94539 11004 ft 284 kts 71°
2026-05-04 23:32 41.20600 -73.91976 11005 ft 292 kts 71°
2026-05-04 23:32 41.21181 -73.89343 11012 ft 299 kts 71°
2026-05-04 23:32 41.21765 -73.86676 11026 ft 301 kts 71°
2026-05-04 23:33 41.22343 -73.84046 11349 ft 292 kts 71°
2026-05-04 23:33 41.22896 -73.81526 11719 ft 283 kts 71°
2026-05-04 23:33 41.23442 -73.79036 12099 ft 278 kts 71°
2026-05-04 23:33 41.23983 -73.76566 12481 ft 275 kts 71°
2026-05-04 23:34 41.24515 -73.74141 12883 ft 272 kts 71°
2026-05-04 23:34 41.25043 -73.71743 13276 ft 270 kts 71°
2026-05-04 23:34 41.25564 -73.69369 13666 ft 270 kts 71°
2026-05-04 23:34 41.26085 -73.66979 14057 ft 267 kts 71°
2026-05-04 23:35 41.26594 -73.64638 14459 ft 261 kts 71°
2026-05-04 23:35 41.27103 -73.62312 14868 ft 261 kts 70°
2026-05-04 23:35 41.27609 -73.60004 15283 ft 260 kts 71°
2026-05-04 23:35 41.28109 -73.57725 15698 ft 258 kts 69°
2026-05-04 23:36 41.28653 -73.55449 16127 ft 256 kts 70°
2026-05-04 23:36 41.29160 -73.53180 16561 ft 255 kts 70°
2026-05-04 23:36 41.29671 -73.50948 16993 ft 254 kts 69°
2026-05-04 23:36 41.30192 -73.48709 17439 ft 252 kts 69°
2026-05-04 23:37 41.30709 -73.46468 17891 ft 251 kts 69°
2026-05-04 23:37 41.31222 -73.44250 18329 ft 250 kts 69°
2026-05-04 23:37 41.31725 -73.42067 18716 ft 249 kts 69°
2026-05-04 23:37 41.32240 -73.39830 18874 ft 261 kts 69°
2026-05-04 23:38 41.32790 -73.37448 18889 ft 274 kts 70°
2026-05-04 23:38 41.33355 -73.34974 18890 ft 284 kts 70°
2026-05-04 23:38 41.33939 -73.32411 18890 ft 292 kts 70°
2026-05-04 23:38 41.34545 -73.29819 18890 ft 298 kts 70°
2026-05-04 23:39 41.35165 -73.27163 18892 ft 303 kts 70°
2026-05-04 23:39 41.35785 -73.24443 18899 ft 308 kts 71°
2026-05-04 23:39 41.36396 -73.21709 18900 ft 314 kts 71°
2026-05-04 23:39 41.37033 -73.18887 18916 ft 320 kts 71°
2026-05-04 23:40 41.37682 -73.16027 18897 ft 325 kts 71°
2026-05-04 23:40 41.38276 -73.13134 18890 ft 328 kts 77°
2026-05-04 23:40 41.38590 -73.10099 18907 ft 331 kts 81°
2026-05-04 23:40 41.38913 -73.07054 18907 ft 332 kts 80°
2026-05-04 23:41 41.39258 -73.03994 18907 ft 334 kts 80°
2026-05-04 23:41 41.39590 -73.00949 18908 ft 335 kts 80°
2026-05-04 23:41 41.39918 -72.97844 18909 ft 336 kts 80°
2026-05-04 23:41 41.40250 -72.94759 18908 ft 337 kts 80°
2026-05-04 23:42 41.40685 -72.91738 18894 ft 335 kts 70°
2026-05-04 23:42 41.41716 -72.88980 18885 ft 330 kts 51°
2026-05-04 23:42 41.43311 -72.86815 18886 ft 322 kts 32°
2026-05-04 23:42 41.45256 -72.85482 18887 ft 313 kts 13°
2026-05-04 23:43 41.47381 -72.85061 18887 ft 303 kts 354°
2026-05-04 23:43 41.49456 -72.85255 18882 ft 299 kts 348°
2026-05-04 23:43 41.51527 -72.85589 18883 ft 299 kts 347°
2026-05-04 23:43 41.53584 -72.85948 18883 ft 299 kts 347°